Terug naar catalogus

SO-50

SAUDISAT 1C

ActiefAmateurradioLEO
NORAD 27607·PAYLOAD·🇸🇦 Saudi Arabia

Gelanceerd Dec 20, 2002 vanaf Baikonur Cosmodrome

Loading…

Volgende Passages (komende 24 uur)

TLE

VersSource: Space-Track

Epoch: Sep 14, 2026, 07:05 UTC

1 27607U 02058C   26257.29580827  .00000780  00000-0  10940-3 0  9992
2 27607  64.5515 213.2481 0072027 246.1134 113.2415 14.83210726277670

Volg SO-50 in realtime met AllMySat

Download on the App Store